Other Surface Observations
Issued by NWS

Home | Current Version | Previous Version | Text Only | Print | Product List | Glossary On
Versions: 1 2 3 4 5 6 7 8 9 10 11 12 13 14 15 16 17 18 19 20 21 22 23 24 25 26 27 28 29 30 31 32 33 34 35 36 37 38 39 40 41 42 43 44 45 46 47 48 49 50
245
SXUS52 KTAE 291918
OSOTAE
OSOTAE
North Florida/South Alabama/Southwest Georgia Weather Roundup
National Weather Service Tallahassee Florida
300 PM EDT FRI JUL 29 2016

Note: "fair" indicates few or no clouds below 12,000 feet with no
significant weather and/or obstructions to visibility.

!FLZ017-115-028-034-025-292000
...North Florida...

CITY           SKY/WX    TMP DP  RH WIND       PRES   REMARKS
TALLAHASSEE    PTSUNNY   96  67  38 N3        30.02F HX 100
APALACHICOLA   MOSUNNY   92  78  63 SW14      30.04F HX 107
PERRY          SUNNY     94  69  45 SW9       30.04S HX  99
CROSS CITY       N/A     95  72  47 NW10      30.02F HX 103
JACKSONVILLE   MOSUNNY   98  68  37 NW8       29.99F HX 103
$$

!FLZ112-006-005-002-011-292000
...Florida Panhandle...

CITY           SKY/WX    TMP DP  RH WIND       PRES   REMARKS
MARIANNA       HVY RAIN  79  77  94 W25G31    30.04R FOG
BONIFAY        NOT AVBL
PANAMA CITY NW CLOUDY    85  74  69 N12G23    30.03R HX  92
TYNDALL AFB    MOSUNNY   89  77  66 SW13      30.05S HX 102
TYND DRONE APT NOT AVBL
DE FUNIAK SPR  TSTM      85  74  70 W10       30.06R HX  93
EGLIN AFB      PTSUNNY   90  73  58 NW10G18   30.04S THUNDER HX  98
DESTIN         MOSUNNY   94  79  61 VRB6      30.03F HX 111
HURLBURT       MOSUNNY   91  73  55 VRB7      30.03S HX 100
CRESTVIEW      MOSUNNY   86  73  65 W7        30.06F HX  93
PENSACOLA      MOSUNNY   88  76  67 S7        30.03F HX  99
$$

!ALZ063-066-292000
...South Alabama...

CITY           SKY/WX    TMP DP  RH WIND       PRES   REMARKS
DOTHAN         MOSUNNY   93  69  45 W7        30.06F HX  98
OZARK CAIRNS   MOSUNNY   92  74  54 CALM      30.02F HX 102
FT RUCKER HELI MOSUNNY   93  70  46 VRB6      30.01F HX  99
RUCKER HELI 3  FAIR      92  69  46 NW5       30.04F HX  97
RUCKER HELI 2  PTSUNNY   92  70  48 W6        30.02F HX  97
FLORALA APT    TSTM      79  73  82 S12G20    30.05S
ANDALUSIA      MOSUNNY   95  71  45 NW9       30.03S HX 102
TROY           MOSUNNY   92  70  48 W9        30.04F HX  97
EUFALA         FAIR      95  70  44 SW6       30.00F HX 101
MOBILE         LGT RAIN  80  75  84 SE7       30.03F
$$

!GAZ120>161-292000
...Southwest and South Central Georgia...

CITY           SKY/WX    TMP DP  RH WIND       PRES   REMARKS
THOMASVILLE      N/A     95  72  46 W6        30.04F HX 103
BAINBRIDGE     SUNNY     97  70  41 CALM      30.02F HX 103
MOODY AFB      MOSUNNY   95  69  43 W13       30.02F HX 100
VALDOSTA       MOSUNNY   95  71  45 SW12      30.02F HX 102
MOULTRIE       MOSUNNY   91  70  49 W5        30.03F HX  97
BLAKELY        SUNNY     95  68  41 NW5       30.02F HX  99
ALBANY         PTSUNNY   96  67  38 W8G18     30.03F HX 100
TIFTON         FAIR      94  67  40 W10       30.01F HX  97
FITZGERALD     FAIR     100  68  34 W9        30.02F HX 106
CORDELE        FAIR      98  68  37 W12G18    30.01F HX 103
AMERICUS       FAIR      95  61  31 W9G20     30.02F HX  95
HOMERVILLE     FAIR      97  70  41 NW7       30.01F HX 103
$$

!GMZ750-755-770-775-292000
...Coastal and Buoy Obs...

STATION/POSITION TIME  TEMP    WIND        PRES    VSBY  WAVE
                       AIR SEA DIR/SP/G                  HT/PER
                 (UTC) (F)     (DEG/KT/KT) (MB)    (MI)  (FT/S)
KEATON BEACH     1900   86     260/  9/  9 1017.0F
CEDAR KEY        1900   88     250/  6/  9 1017.6F
C TOWER          1900   86     230/  5/  6 1018.2F
APALACHICOLA BUO 1850   88 93   CALM  /  2 1017.9F         1/ 5
PANAMA CITY BUOY 1850   86 88  220/  4/  8 1018.4R         1/ 5
MOBILE BUOY      1900   85 87   CALM  /  2 1017.0F
ORANGE BCH AL BU 1850   85 88  220/  8/  8 1017.4F         2/ 6
$$




USA.gov is the U.S. government's official web portal to all federal, state and local government web resources and services.